Weather History for Yellowstone, WY

Change the Weather History Date:

Monday, July 7, 2014

  Actual Average Record
Temperature  
Mean Temperature 58 °F 55 °F  
Max Temperature 74 °F 71 °F 80 °F (2002)
Min Temperature 42 °F 39 °F 29 °F (2010)
Degree Days  
Heating Degree Days 7 10  
Month to date heating degree days 62 78  
Since 1 June heating degree days 648 571  
Since 1 July heating degree days 62 78  
Cooling Degree Days 0 0  
Month to date cooling degree days 0 0  
Year to date cooling degree days 0 0  
Since 1 June cooling degree days 0 0  
Growing Degree Days 8 (Base 50)    
Moisture  
Dew Point 38 °F    
Average Humidity 56    
Maximum Humidity 89    
Minimum Humidity 23    
Precipitation  
Precipitation 0.00 in 0.04 in 0.27 in (2006)
Month to date precipitation 0.01 0.31  
Year to date precipitation 17.49 11.39  
Sea Level Pressure  
Sea Level Pressure 30.11 in    
Wind  
Wind Speed 3 mph (NW)    
Max Wind Speed 10 mph    
Max Gust Speed 20 mph    
T = Trace of Precipitation, MM = Missing Value Source: NWS Daily Summary

Daily Weather History Graph

Daily Weather History Graph

Search for Another Location

Airport:

Trip Planner

Search our weather history database for the weather conditions in past years. The results will help you decide how hot, cold, wet, or windy it might be!

Date:

Astronomy

Jul. 07, 2014 Rise Set
Actual Time 5:44 AM MDT 9:08 PM MDT
Civil Twilight 5:08 AM MDT 9:44 PM MDT
Nautical Twilight 4:20 AM MDT 10:31 PM MDT
Astronomical Twilight 3:20 AM MDT 11:31 PM MDT
Moon 4:09 PM MDT (7/7) 1:47 AM MDT (7/7)
Length of Visible Light 16h 36m
Length of Day
15h 23m
Waxing Gibbous, 73% of the Moon is Illuminated
Jul 7
Waxing Gibbous
Jul 12
Full
Jul 18
Last Quarter
Jul 26
New
Aug 3
First Quarter

Hourly Weather History & Observations

Time (MDT) Temp. Windchill Dew Point Humidity Pressure Visibility Wind Dir Wind Speed Gust Speed Precip Events Conditions
12:56 AM 50.0 °F - 42.1 °F 74% 30.09 in - Calm Calm - N/A   Unknown
1:56 AM 48.9 °F - 42.1 °F 77% 30.08 in - WNW 3.5 mph - N/A   Unknown
2:56 AM 46.9 °F - 41.0 °F 80% 30.09 in - WNW 3.5 mph - N/A   Unknown
3:56 AM 44.1 °F - 39.9 °F 85% 30.09 in - Calm Calm - N/A   Unknown
4:56 AM 43.0 °F - 39.0 °F 86% 30.07 in - Calm Calm - N/A   Unknown
5:56 AM 42.1 °F 40.2 °F 39.0 °F 89% 30.09 in - NW 3.5 mph - N/A   Unknown
6:56 AM 44.1 °F - 39.9 °F 85% 30.10 in - Calm Calm - N/A   Unknown
7:56 AM 55.0 °F - 45.0 °F 69% 30.08 in - Calm Calm - N/A   Unknown
8:56 AM 63.0 °F - 39.9 °F 43% 30.08 in - Variable 3.5 mph - N/A   Unknown
9:56 AM 66.0 °F - 39.0 °F 37% 30.11 in - North - - N/A   Unknown
10:56 AM 68.0 °F - 37.0 °F 32% 30.11 in - North - - N/A   Unknown
11:56 AM 69.1 °F - 35.1 °F 29% 30.12 in - WNW 9.2 mph 18.4 mph N/A   Unknown
12:56 PM 70.0 °F - 39.9 °F 33% 30.12 in - North - - N/A   Unknown
1:56 PM 69.1 °F - 42.1 °F 38% 30.12 in - Variable 4.6 mph - N/A   Unknown
2:56 PM 69.1 °F - 39.9 °F 35% 30.13 in - Variable 3.5 mph - N/A   Unknown
3:56 PM 71.1 °F - 37.9 °F 30% 30.12 in - Variable 3.5 mph - N/A   Unknown
4:56 PM 73.0 °F - 36.0 °F 26% 30.12 in - Variable 6.9 mph - N/A   Unknown
5:56 PM 72.0 °F - 36.0 °F 27% 30.13 in - NE 4.6 mph - N/A   Unknown
6:56 PM 72.0 °F - 33.1 °F 24% 30.11 in - Variable 3.5 mph - N/A   Unknown
7:56 PM 69.1 °F - 30.0 °F 23% 30.09 in - North 3.5 mph - N/A   Unknown
8:56 PM 61.0 °F - 35.1 °F 38% 30.10 in - Calm Calm - N/A   Unknown
9:56 PM 53.1 °F - 37.9 °F 57% 30.13 in - NW 3.5 mph - N/A   Unknown
10:56 PM 48.9 °F - 37.0 °F 64% 30.14 in - NW 4.6 mph - N/A   Unknown
11:56 PM 46.9 °F - 37.9 °F 71% 30.15 in - Calm Calm - N/A   Unknown